sat.trackr.live / text

‹ back to catalog

SAUDICOMSAT 3

NORAD 31125 · 2007-012J

PAYLOAD ACTIVE UNKNOWN

§ Identity

Operator
Country
SAUD
Launch date
2007-04-17
Launch site
TYMSC
Launch vehicle
Mass (kg)
RCS (m²)
0.07

External: N2YO · Heavens-Above · Gunter

§ Orbital elements

Epoch: 2026-09-19T16:19:03.631296Z

Period
97.90 min
Inclination
98.3266°
Eccentricity
0.0040229
Mean motion
14.70821183 rev/d
Perigee alt
630.1 km
Apogee alt
686.8 km
Semi-major
7,036.6 km
B*
8.0256e-5
RAAN
240.0769°
Arg perigee
112.4194°
Mean anomaly
248.1281°
Rev number
3,871

§ Raw data

SAUDICOMSAT 31 31125U 07012J   26262.67990314  .00000442  00000+0  80256-4 0  99932 31125  98.3266 240.0769 0040229 112.4194 248.1281 14.70821183 38715

JSON: /api/v1/satellites/31125 · /tle

For live sub-satellite position, see the globe view (requires WebGL).

§ Visibility from observer

Set your observer location to see the next 7 days of passes ≥ 10°. The values pass through the URL so the page stays shareable.

No JS? Fill the form by hand. The geolocation button needs JavaScript.